Wind_Speed
57 57 58 58 59 59 57 56 54 53 53 54 54 48 49 48 49 51 53 51 49 48 41 39 36 43 45 46 53 56 60 66 42 44 46 46 47 40 43 42 39 39 35
54 55 55 54 52 51 50 52 55 56 53 52 55 55 51 48 46 49 51 52 51 49 44 39 40 38 39 39 42 53 60 56 65 61 58 55 55 51 43 43 36 34 31
54 50 51 51 53 52 52 52 52 48 43 43 43 45 46 48 44 45 49 49 49 47 43 40 39 37 33 35 36 34 41 46 47 58 50 56 43 45 38 40 38 42 38
52 46 46 48 49 52 51 50 47 48 45 43 43 45 41 44 43 42 44 44 43 44 39 36 32 29 30 31 36 43 36 31 48 41 35 32 42 40 37 39 50 35 34
48 45 46 46 48 49 48 46 45 44 45 45 44 43 43 39 41 41 41 39 39 35 32 27 23 23 25 28 31 38 35 35 38 44 34 32 36 41 33 41 43 29 16
49 49 50 49 47 46 44 43 45 45 47 45 42 42 40 38 38 38 37 34 32 30 26 20 22 25 28 29 32 36 43 32 29 28 43 42 33 41 44 38 26 16 18
51 50 43 36 34 36 40 45 43 37 36 33 34 34 34 35 33 33 32 30 28 25 21 20 23 23 27 26 24 25 31 32 33 30 31 29 32 38 30 10 11 16 23
49 43 41 39 37 36 38 35 31 29 31 31 31 33 30 31 31 29 28 27 23 20 19 21 20 19 19 12 17 20 21 19 26 29 31 29 35 19 4 9 12 18 24
45 43 45 39 35 34 30 29 24 24 26 23 22 26 28 29 26 26 26 23 20 20 21 17 14 16 10 11 17 19 17 25 26 25 24 16 6 5 7 10 16 22 29
46 42 36 33 34 32 26 22 22 20 19 18 21 23 27 26 26 23 24 21 20 20 17 15 17 15 13 16 12 12 15 17 17 13 11 8 4 4 10 16 22 29 34
32 29 27 28 26 24 22 17 16 15 15 20 24 28 24 22 20 22 19 19 19 19 18 16 19 22 8 10 14 8 14 12 9 7 6 4 7 10 14 22 28 34 38
16 15 16 13 13 14 14 11 14 14 19 27 30 26 24 24 23 23 21 19 19 17 15 15 15 19 10 7 15 9 15 9 6 4 5 6 12 16 20 27 34 39 43
16 15 11 10 10 12 16 15 17 17 26 29 27 25 26 26 24 20 16 14 12 15 16 16 12 15 16 11 15 16 11 6 4 5 7 11 16 21 28 34 37 42 48
18 15 13 8 8 16 18 24 26 22 29 34 19 24 23 22 15 10 9 5 5 8 12 16 8 8 11 18 19 11 6 4 6 8 12 16 22 29 35 39 42 46 50
21 19 12 13 22 28 30 30 26 27 30 22 22 23 17 13 9 7 4 10 4 8 8 11 10 16 19 18 15 10 4 2 8 13 19 23 29 33 36 40 44 45 39
23 22 23 29 38 34 34 27 28 28 27 27 23 21 16 10 7 5 8 4 8 13 14 16 21 23 21 16 8 5 1 6 12 17 24 29 31 34 37 41 41 35 29
27 28 30 31 32 31 32 31 31 29 28 26 21 16 12 9 8 11 14 8 13 18 25 26 24 17 11 8 3 4 9 13 19 24 27 30 34 37 38 38 35 30 27
32 34 34 36 35 34 33 31 29 26 21 17 14 14 14 12 11 14 11 21 28 31 24 18 14 10 6 2 7 11 15 20 23 27 30 33 35 35 35 32 30 27 21
32 32 33 33 31 30 29 25 23 23 22 18 19 20 20 18 9 13 27 31 25 17 13 12 8 4 6 9 12 17 21 24 28 30 31 31 32 32 28 24 22 22 17
32 31 35 31 33 30 26 23 27 34 39 35 25 21 21 18 27 30 26 21 16 13 10 6 6 7 10 15 19 21 22 24 27 30 29 29 29 26 21 19 19 21 17
32 31 28 28 33 31 38 39 38 37 32 28 22 19 20 34 27 22 19 15 10 8 6 5 7 12 15 16 18 21 25 28 28 28 27 24 22 20 18 17 16 16 15
29 28 31 36 38 37 36 35 31 32 27 27 30 31 28 26 22 17 13 9 6 6 8 10 11 13 16 20 24 26 28 27 27 25 23 21 20 19 17 15 13 12 12
30 31 34 37 37 35 35 33 32 35 37 35 29 25 22 21 15 11 8 8 8 7 8 11 14 19 22 25 27 28 27 27 25 22 21 19 19 19 17 15 12 10 9
37 32 31 32 35 34 41 43 41 37 33 27 23 20 17 13 9 8 8 7 8 10 14 17 20 22 25 27 26 26 25 23 21 20 19 18 18 18 17 15 12 9 6
46 47 47 49 48 44 39 35 32 28 24 21 18 15 12 9 8 8 8 10 12 15 17 20 23 25 24 24 23 22 20 19 18 19 19 18 18 17 16 15 12 9 5
45 42 40 39 37 34 31 27 24 21 19 16 14 12 10 9 8 9 11 13 15 17 20 21 21 22 22 22 22 21 20 19 19 18 19 19 18 16 16 16 13 10 5
Wind_Direction
289 284 277 271 270 268 271 274 272 271 266 262 264 260 259 260 260 260 263 265 267 270 273 273 268 263 263 264 260 255 252 253 256 269 268 261 262 279 296 280 286 290 290
288 283 278 275 273 269 267 268 270 274 270 266 261 259 253 256 257 254 257 261 264 268 273 276 277 279 275 269 270 258 254 257 261 267 269 267 273 280 282 281 276 276 292
290 279 273 272 273 270 270 271 273 267 262 261 263 262 258 254 257 253 252 254 259 265 268 271 276 279 281 275 264 263 260 260 259 251 262 268 269 279 258 253 282 281 294
288 280 275 272 270 270 271 271 263 263 262 265 264 259 256 252 252 253 251 250 255 260 267 270 277 282 283 279 262 263 268 276 250 262 242 262 264 251 264 267 290 288 303
288 282 277 273 270 268 271 267 265 264 263 266 263 260 251 252 249 248 247 245 249 255 261 268 272 283 291 294 279 256 255 256 248 253 254 274 236 283 255 275 275 287 296
291 287 284 278 271 268 264 265 266 265 265 262 260 252 248 243 246 243 242 240 244 249 255 263 273 285 289 288 282 261 250 263 264 257 254 245 265 276 267 264 274 295 297
285 284 276 270 269 268 265 267 267 262 257 254 252 249 246 237 238 235 235 234 237 244 253 266 280 289 294 285 290 254 257 251 250 249 237 268 252 247 250 267 287 298 303
282 273 271 272 269 262 263 270 267 256 250 247 247 245 233 231 227 225 224 228 232 241 255 265 284 299 288 316 292 263 238 215 214 229 235 240 241 236 223 270 290 302 310
272 267 267 268 263 259 262 268 256 247 248 252 237 229 212 218 215 217 219 223 228 240 254 270 283 279 262 291 271 295 207 181 188 200 207 215 175 213 256 306 317 320 319
264 265 261 258 259 258 262 259 243 249 246 231 222 202 204 205 209 212 218 211 228 240 251 261 269 256 268 298 265 237 133 93 89 104 138 155 186 308 337 325 327 327 328
257 258 250 246 250 242 248 239 239 236 223 197 193 191 188 189 198 207 204 218 227 238 247 257 274 236 348 298 291 150 116 117 129 123 98 34 355 342 336 333 335 330 328
226 225 217 220 219 221 221 211 204 195 173 178 173 176 186 191 199 200 207 217 226 245 256 268 258 246 246 295 276 170 131 124 111 92 37 350 341 342 336 341 338 332 329
192 191 179 187 192 192 166 169 163 156 158 167 162 180 189 191 195 197 205 219 238 253 263 270 234 229 230 269 200 120 116 143 117 32 358 340 338 339 341 341 334 331 326
154 152 150 161 173 163 162 156 138 136 155 154 179 179 197 190 177 180 205 239 275 277 265 231 251 189 209 172 116 115 135 72 26 359 345 339 342 343 340 337 334 329 327
130 124 119 126 134 140 144 134 138 145 153 158 182 182 159 150 151 171 150 104 98 73 181 206 163 178 145 121 132 124 115 339 351 345 342 343 341 341 335 331 332 332 325
113 112 115 131 133 137 141 139 136 138 153 155 144 143 138 132 147 149 153 32 114 91 102 143 157 138 121 105 125 153 70 0 348 345 342 339 336 334 335 338 338 334 338
108 115 123 128 131 131 129 130 132 137 141 139 132 123 129 121 135 125 58 74 113 141 124 111 108 106 118 141 126 13 355 345 349 344 338 335 335 340 344 343 340 340 339
112 115 117 118 120 123 127 132 132 133 129 125 131 140 130 127 132 137 93 141 123 102 107 113 117 128 123 57 357 343 344 345 342 341 336 339 343 345 343 343 343 340 331
117 114 115 116 121 127 131 132 141 142 143 137 130 122 109 97 114 111 125 109 101 116 124 122 115 84 8 349 334 340 342 340 337 336 340 343 344 344 343 340 338 341 344
108 104 105 107 107 112 124 127 123 127 125 121 102 117 113 106 114 111 112 114 113 112 105 81 34 355 336 338 340 336 333 332 338 343 343 344 343 341 333 331 342 352 355
115 114 107 122 119 118 118 122 125 120 112 118 118 122 104 121 116 109 102 103 100 83 55 18 355 347 340 332 328 332 339 341 343 344 344 340 334 332 332 336 343 351 354
113 119 118 117 123 122 120 117 119 117 115 117 114 118 122 113 107 101 95 85 72 43 16 356 339 335 335 336 339 342 344 346 344 341 338 332 330 333 337 340 345 348 350
117 119 118 113 117 114 113 110 110 113 117 116 116 116 107 99 97 93 78 49 27 2 348 348 346 342 340 342 345 347 345 343 339 335 330 329 335 342 343 344 344 347 354
110 110 114 115 115 107 111 112 115 114 112 111 105 94 88 85 77 59 38 19 2 356 353 348 343 342 344 345 345 347 345 341 336 333 335 339 343 348 350 350 348 349 0
110 107 105 107 110 111 110 107 104 103 100 94 87 81 73 62 47 31 16 7 358 351 346 343 344 346 344 345 350 349 344 342 341 344 348 347 348 351 355 356 357 359 10
110 112 111 108 106 105 104 100 94 88 86 84 79 71 56 36 18 9 5 359 351 345 343 343 343 348 355 358 353 351 351 351 351 350 349 349 350 356 359 0 4 7 19
Height
5664 5662 5660 5658 5658 5660 5660 5660 5660 5662 5662 5662 5662 5667 5669 5670 5671 5673 5673 5676 5679 5681 5684 5685 5686 5687 5686 5687 5688 5692 5696 5700 5701 5704 5706 5705 5708 5706 5709 5707 5702 5701 5699
5650 5647 5645 5644 5643 5643 5645 5646 5646 5647 5645 5647 5649 5652 5656 5657 5660 5662 5664 5664 5668 5671 5674 5675 5676 5675 5675 5674 5675 5681 5684 5688 5691 5694 5697 5698 5698 5698 5697 5695 5690 5692 5688
5637 5634 5632 5630 5630 5630 5631 5632 5632 5632 5633 5634 5636 5638 5642 5645 5649 5650 5652 5655 5659 5662 5666 5667 5668 5668 5667 5666 5668 5669 5672 5674 5680 5682 5684 5688 5686 5687 5686 5685 5685 5683 5679
5623 5620 5619 5617 5616 5617 5618 5618 5618 5618 5620 5622 5626 5628 5631 5633 5637 5640 5643 5647 5651 5654 5658 5660 5661 5660 5659 5658 5658 5659 5662 5662 5666 5668 5671 5675 5677 5676 5678 5678 5678 5674 5670
5608 5606 5604 5603 5603 5602 5603 5603 5605 5606 5608 5611 5612 5616 5620 5623 5627 5631 5636 5640 5643 5648 5651 5654 5655 5653 5652 5650 5649 5648 5652 5655 5657 5661 5661 5663 5668 5669 5667 5668 5669 5666 5664
5591 5590 5588 5587 5587 5587 5588 5590 5592 5595 5595 5597 5600 5604 5609 5614 5617 5623 5628 5634 5638 5642 5646 5648 5648 5648 5647 5644 5641 5638 5642 5644 5650 5651 5655 5658 5658 5661 5658 5659 5660 5659 5657
5577 5577 5574 5574 5575 5576 5576 5578 5580 5582 5583 5587 5591 5596 5601 5604 5610 5616 5623 5627 5632 5637 5641 5642 5642 5641 5638 5635 5631 5629 5632 5634 5639 5643 5646 5648 5651 5651 5651 5654 5654 5652 5651
5563 5563 5562 5563 5565 5566 5566 5567 5570 5572 5575 5579 5584 5587 5593 5598 5604 5611 5617 5623 5629 5633 5635 5636 5635 5635 5631 5628 5626 5625 5623 5623 5628 5633 5637 5639 5643 5643 5647 5648 5646 5646 5644
5547 5549 5550 5553 5554 5554 5555 5558 5561 5564 5569 5573 5576 5580 5586 5594 5600 5608 5614 5619 5624 5627 5629 5631 5632 5630 5630 5625 5624 5621 5618 5616 5619 5625 5630 5633 5638 5642 5643 5643 5641 5639 5635
5532 5536 5539 5541 5542 5545 5548 5551 5555 5560 5563 5566 5571 5578 5585 5592 5598 5605 5611 5615 5620 5622 5625 5626 5626 5624 5623 5622 5621 5621 5617 5618 5621 5629 5633 5636 5639 5639 5636 5638 5634 5630 5624
5521 5524 5527 5530 5533 5538 5542 5546 5552 5555 5557 5561 5570 5577 5584 5592 5597 5603 5607 5613 5616 5618 5620 5622 5621 5621 5621 5621 5621 5620 5625 5628 5631 5632 5634 5637 5637 5636 5634 5631 5626 5622 5615
5512 5516 5520 5526 5529 5533 5538 5544 5549 5551 5554 5562 5572 5582 5587 5591 5597 5601 5605 5609 5612 5615 5617 5618 5618 5620 5621 5622 5622 5622 5625 5629 5632 5633 5634 5637 5636 5633 5630 5622 5617 5613 5607
5508 5515 5519 5523 5527 5531 5537 5544 5548 5552 5557 5566 5576 5583 5587 5592 5596 5600 5605 5609 5613 5614 5614 5613 5615 5618 5620 5620 5623 5625 5630 5633 5635 5634 5634 5634 5632 5628 5622 5615 5611 5604 5598
5510 5515 5519 5522 5526 5532 5539 5545 5551 5558 5564 5571 5579 5586 5590 5594 5599 5603 5607 5610 5612 5610 5610 5612 5613 5616 5619 5621 5624 5629 5633 5633 5633 5633 5632 5630 5625 5619 5614 5609 5604 5599 5589
5513 5517 5520 5523 5527 5535 5543 5550 5555 5561 5568 5576 5582 5589 5595 5598 5601 5604 5607 5608 5607 5605 5607 5610 5613 5616 5619 5625 5629 5631 5633 5633 5631 5629 5627 5623 5618 5611 5610 5606 5598 5588 5575
5519 5522 5525 5530 5535 5542 5548 5554 5560 5565 5573 5580 5587 5593 5597 5600 5602 5604 5605 5606 5605 5605 5608 5612 5617 5620 5624 5627 5631 5632 5632 5630 5628 5624 5622 5619 5615 5611 5604 5595 5585 5576 5569
5527 5531 5535 5540 5545 5551 5557 5563 5570 5575 5580 5586 5592 5596 5598 5600 5601 5603 5605 5606 5607 5610 5613 5619 5623 5626 5628 5630 5631 5629 5628 5627 5622 5619 5618 5615 5610 5601 5592 5585 5578 5570 5564
5537 5541 5546 5550 5555 5561 5567 5572 5578 5583 5588 5593 5594 5596 5599 5602 5604 5607 5608 5611 5613 5618 5623 5627 5627 5629 5630 5631 5630 5629 5625 5621 5619 5616 5614 5608 5600 5593 5587 5580 5573 5569 5564
5547 5553 5557 5561 5565 5569 5574 5579 5582 5586 5590 5595 5600 5602 5605 5607 5609 5612 5615 5618 5622 5625 5628 5629 5630 5631 5631 5630 5629 5625 5621 5618 5615 5612 5607 5601 5595 5590 5583 5578 5575 5569 5561
5559 5562 5566 5569 5572 5576 5579 5583 5587 5592 5596 5600 5605 5607 5611 5613 5616 5620 5622 5624 5628 5630 5631 5631 5631 5632 5631 5628 5625 5622 5620 5618 5613 5607 5602 5596 5590 5584 5581 5578 5571 5565 5560
5569 5572 5574 5576 5580 5583 5588 5592 5595 5599 5603 5607 5611 5613 5617 5620 5623 5626 5628 5630 5632 5633 5633 5633 5632 5631 5629 5627 5625 5621 5616 5612 5606 5601 5596 5591 5587 5583 5579 5574 5569 5564 5561
5579 5582 5584 5586 5589 5592 5596 5599 5603 5607 5611 5615 5619 5623 5626 5627 5629 5631 5634 5635 5635 5634 5633 5632 5631 5630 5628 5625 5620 5615 5610 5605 5601 5597 5593 5588 5584 5580 5575 5571 5567 5565 5563
5588 5591 5594 5597 5599 5602 5606 5608 5611 5615 5621 5624 5628 5631 5632 5633 5636 5637 5637 5637 5636 5635 5633 5632 5630 5628 5624 5620 5615 5610 5607 5603 5599 5594 5590 5586 5582 5577 5573 5570 5567 5564 5562
5599 5601 5603 5605 5609 5612 5617 5620 5623 5626 5629 5633 5635 5636 5638 5639 5640 5639 5638 5637 5636 5635 5633 5631 5628 5624 5619 5616 5612 5609 5604 5600 5596 5593 5588 5584 5579 5576 5572 5568 5565 5563 5561
5610 5613 5615 5618 5622 5626 5629 5632 5634 5637 5639 5640 5640 5641 5642 5643 5642 5641 5639 5638 5636 5634 5631 5628 5624 5621 5618 5615 5610 5606 5602 5598 5594 5590 5585 5582 5578 5575 5572 5569 5565 5563 5561
5623 5626 5629 5631 5633 5635 5637 5639 5640 5642 5644 5645 5646 5646 5645 5645 5643 5642 5640 5637 5635 5632 5629 5626 5623 5620 5615 5611 5607 5604 5600 5596 5591 5588 5585 5582 5579 5575 5572 5568 5565 5563 5561